TimeCST,TemperatureF,Dew PointF,Humidity,Sea Level PressureIn,VisibilityMPH,Wind Direction,Wind SpeedMPH,Gust SpeedMPH,PrecipitationIn,Events,Conditions,WindDirDegrees,DateUTC
12:52 AM,16.0,10.0,77,30.43,10.0,Calm,Calm,-,N/A,,Partly Cloudy,0,2013-01-15 06:52:00
1:52 AM,12.9,9.0,84,30.42,10.0,Calm,Calm,-,N/A,,Overcast,0,2013-01-15 07:52:00
2:52 AM,10.9,8.1,88,30.41,10.0,Calm,Calm,-,N/A,,Scattered Clouds,0,2013-01-15 08:52:00
5:52 AM,12.0,8.1,84,30.41,10.0,Calm,Calm,-,N/A,,Overcast,0,2013-01-15 11:52:00
6:52 AM,12.0,9.0,88,30.42,9.0,Calm,Calm,-,N/A,,Clear,0,2013-01-15 12:52:00
7:52 AM,12.9,9.0,84,30.42,6.0,Calm,Calm,-,N/A,,Overcast,0,2013-01-15 13:52:00
8:52 AM,16.0,12.0,84,30.41,7.0,Calm,Calm,-,N/A,,Scattered Clouds,0,2013-01-15 14:52:00
9:52 AM,23.0,15.1,72,30.40,9.0,Calm,Calm,-,N/A,,Clear,0,2013-01-15 15:52:00
10:52 AM,26.1,12.0,55,30.40,10.0,Calm,Calm,-,N/A,,Clear,0,2013-01-15 16:52:00
11:52 AM,28.0,10.0,47,30.37,10.0,South,4.6,-,N/A,,Clear,180,2013-01-15 17:52:00
12:52 PM,30.0,10.0,43,30.32,10.0,SE,4.6,-,N/A,,Clear,130,2013-01-15 18:52:00
1:52 PM,30.9,10.0,42,30.30,10.0,SSE,4.6,-,N/A,,Clear,150,2013-01-15 19:52:00
2:52 PM,32.0,9.0,38,30.29,10.0,Calm,Calm,-,N/A,,Clear,0,2013-01-15 20:52:00
3:52 PM,33.1,10.0,38,30.29,10.0,South,4.6,-,N/A,,Clear,170,2013-01-15 21:52:00
4:52 PM,30.9,9.0,40,30.28,10.0,Calm,Calm,-,N/A,,Clear,0,2013-01-15 22:52:00
5:52 PM,26.1,12.0,55,30.27,10.0,Calm,Calm,-,N/A,,Clear,0,2013-01-15 23:52:00
6:52 PM,19.9,10.9,68,30.28,10.0,Calm,Calm,-,N/A,,Clear,0,2013-01-16 00:52:00
7:52 PM,17.1,10.0,74,30.28,10.0,Calm,Calm,-,N/A,,Clear,0,2013-01-16 01:52:00
8:52 PM,15.1,10.0,80,30.26,10.0,Calm,Calm,-,N/A,,Clear,0,2013-01-16 02:52:00
9:52 PM,16.0,10.0,77,30.23,10.0,Calm,Calm,-,N/A,,Clear,0,2013-01-16 03:52:00
10:52 PM,12.9,9.0,84,30.23,10.0,Calm,Calm,-,N/A,,Clear,0,2013-01-16 04:52:00
11:52 PM,12.0,8.1,84,30.22,10.0,Calm,Calm,-,N/A,,Clear,0,2013-01-16 05:52:00